Weather History for Portland Troutdale, OR

Change the Weather History Date:

Monday, January 21, 2013

  Actual Average Record
Temperature  
Mean Temperature 35 °F 40 °F  
Max Temperature 38 °F 47 °F 58 °F (2005)
Min Temperature 32 °F 34 °F 14 °F (1962)
Degree Days  
Heating Degree Days 30 25  
Month to date heating degree days 598 542  
Cooling Degree Days 0 0  
Month to date cooling degree days 0 0  
Moisture  
Dew Point 24 °F    
Average Humidity 66    
Maximum Humidity 72    
Minimum Humidity 59    
Precipitation  
Precipitation 0.00 in 0.19 in 1.99 in (1997)
Month to date precipitation 0.85 4.43  
Year to date precipitation 0.85 4.43  
Snow  
Snow 0.00 in - - ()
Month to date snowfall 0.0  
Snow Depth 0.00 in    
Sea Level Pressure  
Sea Level Pressure 30.20 in    
Wind  
Wind Speed 25 mph (East)    
Max Wind Speed 35 mph    
Max Gust Speed 45 mph    
Visibility 10 miles    
Events      
T = Trace of Precipitation, MM = Missing Value Source: NWS Daily Summary

Daily Weather History Graph

Daily Weather History Graph

Search for Another Location

Airport:

Trip Planner

Search our weather history database for the weather conditions in past years. The results will help you decide how hot, cold, wet, or windy it might be!

Date:

Astronomy

Jan. 21, 2013 Rise Set
Actual Time 7:41 AM PST 5:01 PM PST
Civil Twilight 7:09 AM PST 5:33 PM PST
Nautical Twilight 6:32 AM PST 6:09 PM PST
Astronomical Twilight 5:57 AM PST 6:45 PM PST
Moon 12:43 PM PST (1/21) 3:15 AM PST (1/21)
Length of Visible Light 10h 24m
Length of Day
9h 19m
Waxing Gibbous, 76% of the Moon is Illuminated
Jan 21
Waxing Gibbous
Jan 26
Full
Feb 3
Last Quarter
Feb 9
New
Feb 17
First Quarter

Hourly Weather History & Observations

Time (PST) Temp. Windchill Dew Point Humidity Pressure Visibility Wind Dir Wind Speed Gust Speed Precip Events Conditions
12:53 AM 32.0 °F 17.9 °F 24.1 °F 73% 30.27 in 10.0 mi East 28.8 mph 39.1 mph N/A   Clear
1:53 AM 32.0 °F 18.1 °F 24.1 °F 73% 30.27 in 10.0 mi East 27.6 mph 39.1 mph N/A   Clear
2:53 AM 32.0 °F 18.1 °F 24.1 °F 73% 30.26 in 10.0 mi East 27.6 mph 40.3 mph N/A   Clear
3:53 AM 32.0 °F 17.9 °F 24.1 °F 73% 30.25 in 10.0 mi East 28.8 mph 34.5 mph N/A   Clear
4:53 AM 32.0 °F 19.5 °F 24.1 °F 73% 30.24 in 10.0 mi East 21.9 mph 32.2 mph N/A   Clear
5:53 AM 32.0 °F 19.8 °F 24.1 °F 73% 30.23 in 10.0 mi East 20.7 mph 29.9 mph N/A   Clear
6:53 AM 32.0 °F 18.9 °F 24.1 °F 73% 30.19 in 10.0 mi East 24.2 mph 32.2 mph N/A   Clear
7:53 AM 32.0 °F 21.2 °F 23.0 °F 69% 30.20 in 10.0 mi East 16.1 mph 27.6 mph N/A   Clear
8:53 AM 33.1 °F 22.2 °F 23.0 °F 66% 30.22 in 10.0 mi East 17.3 mph 26.5 mph N/A   Clear
9:53 AM 35.1 °F 23.8 °F 24.1 °F 64% 30.23 in 10.0 mi East 20.7 mph 31.1 mph N/A   Clear
10:53 AM 36.0 °F 24.4 °F 25.0 °F 64% 30.23 in 10.0 mi East 23.0 mph 31.1 mph N/A   Clear
11:53 AM 36.0 °F 24.2 °F 24.1 °F 62% 30.21 in 10.0 mi East 24.2 mph 32.2 mph N/A   Clear
12:53 PM 37.9 °F 27.1 °F 24.1 °F 57% 30.19 in 10.0 mi East 23.0 mph 28.8 mph N/A   Clear
1:53 PM 37.9 °F 26.8 °F 24.1 °F 57% 30.18 in 10.0 mi East 24.2 mph 34.5 mph N/A   Clear
2:53 PM 37.0 °F 25.6 °F 24.1 °F 59% 30.17 in 10.0 mi East 24.2 mph 34.5 mph N/A   Clear
3:53 PM 36.0 °F 23.2 °F 24.1 °F 62% 30.17 in 10.0 mi East 28.8 mph 40.3 mph N/A   Clear
4:53 PM 34.0 °F 20.8 °F 24.1 °F 67% 30.17 in 10.0 mi East 27.6 mph 36.8 mph N/A   Clear
5:53 PM 33.1 °F 18.9 °F 24.1 °F 70% 30.16 in 10.0 mi East 31.1 mph 40.3 mph N/A   Clear
6:53 PM 33.1 °F 19.8 °F 24.1 °F 70% 30.17 in 10.0 mi East 26.5 mph 39.1 mph N/A   Clear
7:53 PM 33.1 °F 20.6 °F 24.1 °F 70% 30.18 in 10.0 mi East 23.0 mph 33.4 mph N/A   Clear
8:53 PM 32.0 °F 17.4 °F 24.1 °F 73% 30.16 in 10.0 mi East 31.1 mph 43.7 mph N/A   Clear
9:53 PM 33.1 °F 20.3 °F 24.1 °F 70% 30.17 in 9.0 mi East 24.2 mph 34.5 mph N/A   Clear
10:53 PM 32.0 °F 19.2 °F 24.1 °F 73% 30.17 in 10.0 mi East 23.0 mph 32.2 mph N/A   Clear
11:53 PM 32.0 °F 19.2 °F 24.1 °F 73% 30.17 in 10.0 mi East 23.0 mph 33.4 mph N/A   Clear